Tracking 26894 objects as of 1-Feb-2023
HD Live streaming from Space Station
objects crossing your sky now

CZ-4B DEB

Track CZ-4B DEB now!
10-day predictions


NORAD ID: 43431
Int'l Code: 2017-034G
Perigee: 550.7 km
Apogee: 853.7 km
Inclination: 43.1 °
Period: 98.7 minutes
Semi major axis: 7073 km
RCS: Unknown
Launch date: June 15, 2017
Source: People's Republic of China (PRC)
Launch site: Jiuquan Satellite Launch Center, China (JSC)

Note: This is SATELLITE DEBRIS
Your satellite tracking list
Your tracking list is empty




NASA's NSSDC Master Catalog

Two Line Element Set (TLE):
1 43431U 17034G   23032.26137723  .00006508  00000-0  10105-2 0  9999
2 43431  43.0997 352.9698 0214137  75.4567 286.9908 14.59419797297526
Source of the keplerian elements: AFSPC